一网星座-0008星 (ONEWEB-0008 )

导读

ONEWEB-0008是英国OneWeb星座的首批卫星之一,于2019年2月27日发射入轨,运行在高度约1200公里的近地极地轨道。它由OneWeb与空客合资制造,单星重147.5公斤,设计寿命5年,搭载Ku/Ka波段天线,单星通信能力约7.5Gbps,可提供最高50Mbps下载速率,是OneWeb全球低轨卫星互联网星座的早期组成部分,为后续星座组网验证了技术方案,助力实现全球高速互联网覆盖的目标。

基本信息
目录编号:
44059
目录名称:
ONEWEB-0008
国际标识:
2019-010C
轨道中心:
EARTH
卫星名称:
一网星座-0008星
卫星全名:
一网星座-0008星 (ONEWEB-0008 )
卫星状态:
在轨 (已飞行2707 天)
发射日期:
2019-02-27 UTC
国别 :
英国 (GB)
星等 :
--
轨道信息
数据来源 国际轨道数据 AOE轨道数据
星历时间 2026-07-26T09:29:41+0800
1天前
查看轨道信息
2026-07-24T03:00:00+0800
4天前
查看轨道信息
半长轴 7575.936km 7575.858km
偏心率 0.0002489 0.0001592
轨道倾角 87.908° 87.907°
近地点辐角 81.098° 88.511°
升交点赤经 221.057° 221.502°
平近点角 279.043° 315.639°
近地点 1195.913km 1196.514km
远地点 1199.685km 1198.928km
周期 109.374分钟 109.372分钟
每日圈数 13.165834 13.166036
详细信息
平衡模式:
三轴稳定
覆盖范围:
全球
运营商:
一网卫星公司
运营商所在国:
英国
制造商(研发单位):
空客防务与航天公司
制造商所在国:
法国大都会
使用方式:
暂无
卫星简介
OneWeb卫星网络由648颗重约125公斤的微型卫星组成,运行在1200公里的轨道上。 每颗卫星都能够提供至少每秒8千兆位的吞吐量,以使用其高吞吐量的Ku频段有效载荷为家庭和移动平台提供互联网接入。该卫星仍在工作。
2D轨道图
3D轨道图
轨道高度分析图
轨道倾角分析图
轨道综合分析图
查看轨道综合分析图